Vertical_Velocity
-1 15 10 7 13 2 -7 -7 9 9 -1 4 6 0 -2 5 -2 2 7 3 5 4
16 2 6 -3 -2 6 -5 8 6 -4 3 1 1 2 -1 1 -0 -1 2 1 4 6
20 6 -3 11 5 7 5 0 5 1 1 3 2 3 3 0 0 0 -3 5 2 -2
0 1 8 0 8 8 -4 -1 -0 2 0 7 2 5 3 -2 -2 -3 2 -1 -2 -0
-6 -2 2 2 7 6 3 -1 -5 1 0 3 7 -2 7 6 2 -1 1 3 -3 1
1 5 2 -6 -1 0 1 -1 1 2 0 4 2 9 3 -6 -6 7 7 3 3 -1
1 -4 -1 0 -6 2 7 6 4 -1 1 2 1 2 10 3 6 6 -1 1 -1 4
14 2 10 6 -1 2 2 3 7 -10 5 -3 2 3 5 1 6 7 4 2 8 6
5 4 0 -1 -2 11 -5 -3 9 2 5 -6 4 4 4 1 3 2 2 6 -1 -0
1 -6 3 -4 9 -5 -3 -1 0 2 -3 10 9 0 -2 4 9 7 -5 -3 4 1
-1 -3 1 0 -5 -0 -0 3 -3 -2 5 -3 -5 -2 10 2 -1 -1 -0 -3 -1 3
-9 -3 6 -4 -3 8 -1 -0 5 -2 -6 1 0 4 1 7 0 4 0 -2 -3 -5
-1 -0 0 1 3 2 -10 5 3 1 -1 2 -1 0 3 -1 -1 5 3 3 -1 -4
3 4 4 4 4 1 2 -0 -1 -3 -1 1 -3 -4 -2 1 3 3 9 9 6 2
Height
3028 3031 3031 3033 3037 3041 3049 3054 3063 3067 3072 3078 3081 3085 3088 3092 3095 3099 3101 3103 3106 3106
3027 3028 3030 3032 3035 3041 3049 3054 3056 3062 3067 3072 3076 3080 3083 3086 3090 3093 3096 3098 3100 3101
3022 3024 3031 3031 3034 3038 3042 3048 3049 3055 3058 3064 3068 3073 3076 3080 3084 3087 3090 3092 3092 3095
3020 3022 3026 3030 3032 3035 3041 3045 3049 3052 3056 3060 3064 3066 3071 3074 3077 3081 3082 3084 3086 3088
3018 3021 3025 3028 3032 3033 3038 3044 3047 3050 3055 3056 3060 3064 3065 3067 3069 3074 3076 3076 3076 3078
3019 3022 3025 3026 3027 3030 3035 3039 3041 3043 3047 3051 3055 3057 3058 3061 3060 3065 3066 3068 3069 3069
3020 3021 3022 3023 3025 3028 3033 3035 3035 3036 3040 3044 3045 3048 3050 3052 3054 3056 3057 3058 3060 3062
3017 3019 3019 3021 3023 3027 3028 3031 3032 3033 3036 3038 3040 3042 3043 3045 3047 3049 3050 3052 3054 3055
3015 3017 3018 3020 3021 3022 3025 3029 3029 3031 3033 3035 3036 3037 3039 3040 3043 3045 3046 3047 3049 3050
3012 3014 3017 3019 3019 3020 3024 3025 3027 3028 3030 3030 3031 3033 3035 3036 3037 3039 3041 3043 3044 3044
3011 3013 3016 3015 3017 3018 3020 3022 3023 3024 3025 3026 3028 3030 3030 3032 3033 3034 3036 3037 3039 3038
3013 3015 3014 3013 3016 3015 3016 3018 3018 3019 3021 3022 3024 3026 3027 3028 3029 3029 3029 3029 3031 3033
3011 3011 3010 3011 3012 3010 3013 3016 3013 3014 3016 3017 3018 3020 3020 3021 3023 3023 3024 3022 3023 3025
3005 3004 3004 3005 3005 3006 3008 3009 3008 3010 3012 3012 3013 3014 3016 3016 3016 3017 3018 3017 3016 3016